OBJECT D, 60748

Orbit data source: Space-Track

You're viewing an Uncataloged Satellite

Recently launched and/or uncataloged satellites may have evolving metadata. Metadata may include but not limited to: Owner, Maufacturer, Bus, Motor, and Mission.

OBJECT D, 60748 is a Chinese satellite in SSO that was launched on Thu, 29 Aug 2024 UTC via a GUSHENXING 1 launch vehicle from the Yellow Sea Launch Area, China (YSLA). Unknown objects in Earth's orbit typically refer to objects detected orbiting the Earth but have not yet been identified or cataloged. These objects could be anything from previously untracked satellites, spent rocket stages, debris from satellite collisions, or even natural meteoroids temporarily captured by Earth's gravity.

Loading next visibility...
Identifier
60748, 2024-153D
Orbit
SSO
Country
Flag of CNCN / PRC
Related business
None
Manufacturer
Unknown
Mission
Operational Commercial Imaging
Bus & Motor
Unknown
Mass
Unknown
Launch date (UTC)
2024-08-29 (2 years ago)
Launch vehicle
GUSHENXING 1
Launch site
Yellow Sea Launch Area, China (YSLA)
Object type
Unknown
Shape & HBR
Box + 1 Pan, 2.5 m
Radar Cross Section
5.339 m², Medium (>0.1 m² and < 1m²)

Expand to show TLE details & history
Last TLE update: 12 hours ago

TLE from 12 hours ago
0 OBJECT D
1 60748U 24153D   26072.59142042  .00019759  00000-0  79608-3 0  9998
2 60748  97.6630 207.9357 0002806 155.4295 204.7076 15.24886794 85269
Epoch: 2026-03-13T14:11Z
TLE epoch observation values (Epoch: 2026-03-13T14:11:38.724Z)
Latitude
-0.00003°
Longitude
-176.2004°
Altitude
495.966 km
Speed
7.616 km/s
True Right ascension
13h 51m 44s
True Declination
0° 00' 00"
Sunlit
Object was in full shadow at epoch
Visualization orbit readout
Latitude
Unknown
Longitude
Unknown
Altitude
Unknown
Speed
Unknown
Apparent Right ascension
Unknown
Apparent Declination
Unknown
Sunlit
N/A
Visualization observer readout
Local Sidereal Time
07:02:15
Azimuth
Unknown
Elevation
Unknown
Doppler factor
Unknown
Orbital elements
Apogee altitude
490.023 km
Perigee altitude
486.169 km
Semi-major axis
6,866.233 km
Eccentricity
0.00028
Inclination
97.663°
RAAN
207.9357°
Arg. of periapsis
155.4295°
True anomaly
204.69416°
Mean anomaly
204.7076°
Eccentric anomaly
204.70088°
Mean motion
3.81474 °/min
Orbital period
94.37 mins
BSTAR
0.00079608
Loading maneuver chart data...
Computing Atmospheric mass density...
Loading historical data...
Loading historical data...
Loading historical data...
Loading historical data...
Loading historical data...
Loading historical data...
Loading historical data...

Documentation

Showing up to 5 results
|